ONEWEB-0632, 56073

Orbit data source: Space-Track

ONEWEB-0632, 56073 is a payload satellite owned by One Web (NAA) (UK) in LEO that was launched on Sun, 26 Mar 2023 UTC via a LVM3 launch vehicle from the Sirharikota (SRI). Payload-class satellites include a variety of spacecraft equipped with specific instruments for various scientific and technological missions. These include communications satellites like Starlink; space stations such as the ISS; scientific satellites like the Hubble; Earth observation satellites from companies like Planet Labs, Umbra, and HawkEye 360; GPS; miniature CubeSats for education and research; and military/defense satellites.

Loading next visibility...
Identifier
56073, 2023-043AD
Orbit
LEO
Country
Flag of UKUK
Related business
Manufacturer
One Web
Mission
Operational Commercial Communications
Bus & Motor
ARROW, Unknown motor
Mass
148 kg wet, ~140 kg dry
Launch date (UTC)
2023-03-26 (2 years ago)
Launch vehicle
LVM3
Launch site
Sirharikota (SRI)
Object type
Payload
Rocket body
Debris
Shape & HBR
Trap Box + 2 Pan, 2.5 m
Radar Cross Section
2.032 m², Large (>1 m²)

Expand to show TLE details & history
Last TLE update: 14 hours ago

TLE from 14 hours ago
0 ONEWEB-0632
1 56073U 23043AD  25250.23623227  .00000071  00000-0  15586-3 0  9990
2 56073  87.9041 315.6815 0001950  91.6768 268.4586 13.15549225119224
Epoch: 2025-09-07T05:40Z
TLE epoch observation values (Epoch: 2025-09-07T05:40:10.468Z)
Latitude
0.00003°
Longitude
-115.92072°
Altitude
1,204.704 km
Speed
7.252 km/s
True Right ascension
21h 02m 43s
True Declination
0° 00' 00"
Sunlit
Object was in full shadow at epoch
Visualization orbit readout
Latitude
Unknown
Longitude
Unknown
Altitude
Unknown
Speed
Unknown
Apparent Right ascension
Unknown
Apparent Declination
Unknown
Sunlit
N/A
Visualization observer readout
Local Sidereal Time
11:50:22
Azimuth
Unknown
Elevation
Unknown
Doppler factor
Unknown
Orbital elements
Apogee altitude
1,200.358 km
Perigee altitude
1,197.403 km
Semi-major axis
7,577.017 km
Eccentricity
0.0002
Inclination
87.9041°
RAAN
315.6815°
Arg. of periapsis
91.6768°
True anomaly
268.43626°
Mean anomaly
268.4586°
Eccentric anomaly
268.44743°
Mean motion
3.29076 °/min
Orbital period
109.4 mins
BSTAR
0.00015586
Loading maneuver chart data...
Computing Atmospheric mass density...
Loading historical data...
Loading historical data...
Loading historical data...
Loading historical data...
Loading historical data...
Loading historical data...
Loading historical data...

Documentation

Showing up to 5 results
|